Fort Knox, KY

10:17 AM EDT on September 27, 2016 (GMT -0400)
Godman Army Air Field

Weather History for KFTK - March, 2013

Change the Weather History Date:

Tuesday, March 12, 2013

  Actual Average Record
Temperature  
Mean Temperature 41 °F -  
Max Temperature 48 °F 50 °F 73 °F (2016)
Min Temperature 34 °F 32 °F 8 °F (1998)
Degree Days  
Heating Degree Days 24    
Moisture  
Dew Point 28 °F    
Average Humidity 67    
Maximum Humidity 81    
Minimum Humidity 47    
Precipitation  
Precipitation 0.00 in - - ()
Sea Level Pressure  
Sea Level Pressure 30.02 in    
Wind  
Wind Speed 10 mph (West)    
Max Wind Speed 15 mph    
Max Gust Speed 22 mph    
Visibility 10 miles    
Events      
Averages and records for this station are not official NWS values.
T = Trace of Precipitation, MM = Missing Value Source: NWS Daily Summary

Daily Weather History Graph

Daily Weather History Graph

Search for Another Location

Airport or City:

Trip Planner

Search our weather history database for the weather conditions in past years. The results will help you decide how hot, cold, wet, or windy it might be!

Date:

Astronomy

Mar. 12, 2013 Rise Set
Actual Time 7:59 AM EDT 7:48 PM EDT
Civil Twilight 7:32 AM EDT 8:14 PM EDT
Nautical Twilight 7:02 AM EDT 8:45 PM EDT
Astronomical Twilight 6:31 AM EDT 9:15 PM EDT
Moon 8:06 AM EDT (3/12) 9:00 PM EDT (3/12)
Length of Visible Light 12h 41m
Length of Day
11h 49m
New Moon, 1% of the Moon is Illuminated
Mar 12
New Moon
Mar 19
First Quarter
Mar 27
Full
Apr 3
Last Quarter
Apr 10
New

Hourly Weather History & Observations

Time (EDT) Temp. Windchill Dew Point Humidity Pressure Visibility Wind Dir Wind Speed Gust Speed Precip Events Conditions
12:06 AM 37.4 °F 29.8 °F 30.2 °F 75% 29.94 in 10.0 mi West 11.5 mph - N/A   Overcast
12:55 AM 36.0 °F 29.6 °F 30.0 °F 79% 29.96 in 10.0 mi West 8.1 mph - N/A   Overcast
1:12 AM 35.6 °F 29.9 °F 30.2 °F 81% 29.96 in 10.0 mi West 6.9 mph - N/A   Overcast
1:55 AM 36.0 °F 28.5 °F 30.2 °F 80% 29.96 in 10.0 mi West 10.4 mph - N/A   Overcast
2:55 AM 35.6 °F 28.6 °F 30.0 °F 80% 29.97 in 10.0 mi West 9.2 mph - N/A   Overcast
2:56 AM 35.6 °F 28.6 °F 30.2 °F 81% 29.97 in 10.0 mi West 9.2 mph - N/A   Overcast
3:03 AM 35.6 °F 29.9 °F 30.2 °F 81% 29.97 in 10.0 mi West 6.9 mph - N/A   Overcast
3:16 AM 35.6 °F 29.2 °F 30.2 °F 81% 29.97 in 10.0 mi West 8.1 mph - N/A   Overcast
3:17 AM 35.6 °F 29.9 °F 30.2 °F 81% 29.97 in 10.0 mi West 6.9 mph - N/A   Overcast
3:55 AM 35.4 °F 29.7 °F 29.1 °F 78% 29.96 in 10.0 mi West 6.9 mph - N/A   Overcast
4:55 AM 34.9 °F 27.1 °F 28.0 °F 76% 29.97 in 10.0 mi West 10.4 mph - N/A   Overcast
5:55 AM 34.5 °F 26.7 °F 27.1 °F 74% 29.99 in 10.0 mi WSW 10.4 mph 20.7 mph N/A   Overcast
6:55 AM 34.3 °F 28.4 °F 27.3 °F 76% 30.01 in 10.0 mi West 6.9 mph - N/A   Overcast
7:55 AM 34.2 °F 28.2 °F 27.3 °F 76% 30.02 in 10.0 mi West 6.9 mph - N/A   Overcast
8:55 AM 34.5 °F 27.9 °F 25.7 °F 70% 30.03 in 10.0 mi West 8.1 mph - N/A   Overcast
9:55 AM 36.0 °F 29.0 °F 25.7 °F 66% 30.04 in 10.0 mi West 9.2 mph - N/A   Overcast
10:55 AM 37.4 °F 29.8 °F 26.8 °F 66% 30.06 in 10.0 mi WSW 11.5 mph - N/A   Mostly Cloudy
11:55 AM 39.9 °F 32.1 °F 28.8 °F 64% 30.07 in 10.0 mi WSW 13.8 mph - N/A   Mostly Cloudy
12:55 PM 42.6 °F 36.3 °F 29.5 °F 60% 30.07 in 10.0 mi SW 11.5 mph 17.3 mph N/A   Scattered Clouds
1:55 PM 45.0 °F 39.3 °F 30.2 °F 56% 30.06 in 10.0 mi West 11.5 mph 18.4 mph N/A   Scattered Clouds
2:55 PM 46.6 °F - 30.2 °F 53% 30.05 in 10.0 mi West 15.0 mph 19.6 mph N/A   Scattered Clouds
3:55 PM 47.5 °F - 29.8 °F 50% 30.04 in 10.0 mi West 13.8 mph 20.7 mph N/A   Mostly Cloudy
4:55 PM 48.0 °F - 28.4 °F 47% 30.04 in 10.0 mi West 13.8 mph 19.6 mph N/A   Scattered Clouds
5:55 PM 47.3 °F - 27.9 °F 47% 30.03 in 10.0 mi West 12.7 mph 21.9 mph N/A   Partly Cloudy
6:55 PM 45.9 °F 40.0 °F 26.4 °F 47% 30.04 in 10.0 mi WSW 12.7 mph - N/A   Clear
7:55 PM 42.6 °F 37.2 °F 26.6 °F 53% 30.06 in 10.0 mi West 9.2 mph - N/A   Clear
8:55 PM 40.5 °F 34.6 °F 24.8 °F 54% 30.08 in 10.0 mi WSW 9.2 mph - N/A   Clear
9:55 PM 39.4 °F 37.2 °F 23.9 °F 54% 30.08 in 10.0 mi SW 3.5 mph - N/A   Clear
10:55 PM 37.2 °F 31.2 °F 24.8 °F 61% 30.10 in 10.0 mi West 8.1 mph - N/A   Scattered Clouds
11:55 PM 39.4 °F 32.7 °F 28.6 °F 65% 30.12 in 10.0 mi WNW 10.4 mph - 0.00 in   Overcast